Pinedale, WY

7:59 PM MDT on June 22, 2017 (GMT -0600)
Wenz

Weather History for KPNA - May, 2013

Change the Weather History Date:

Sunday, May 12, 2013

  Actual Average (KBPI) Record (KBPI)
Temperature  
Mean Temperature 52 °F -  
Max Temperature 73 °F 57 °F 79 °F (2007)
Min Temperature 32 °F 26 °F 15 °F (1999)
Degree Days  
Heating Degree Days 12    
Growing Degree Days 2 (Base 50)    
Moisture  
Dew Point 30 °F    
Average Humidity 45    
Maximum Humidity 87    
Minimum Humidity 18    
Precipitation  
Precipitation 0.00 in - - ()
Sea Level Pressure  
Sea Level Pressure 30.33 in    
Wind  
Wind Speed 7 mph (WNW)    
Max Wind Speed 23 mph    
Max Gust Speed 40 mph    
Visibility 10 miles    
Events      
Averages and records for this station are not official NWS values.
T = Trace of Precipitation, MM = Missing Value Source: NWS Daily Summary

Daily Weather History Graph

Daily Weather History Graph

Search for Another Location

Airport or City:

Trip Planner

Search our weather history database for the weather conditions in past years. The results will help you decide how hot, cold, wet, or windy it might be!

Date:

Astronomy

May. 12, 2013 Rise Set
Actual Time 5:59 AM MDT 8:32 PM MDT
Civil Twilight 5:27 AM MDT 9:04 PM MDT
Nautical Twilight 4:47 AM MDT 9:45 PM MDT
Astronomical Twilight 4:01 AM MDT 10:30 PM MDT
Moon 7:56 AM MDT (5/12) 11:02 PM MDT (5/12)
Length of Visible Light 15h 37m
Length of Day
14h 32m
Waxing Crescent, 7% of the Moon is Illuminated
May 12
Waxing Crescent
May 17
First Quarter
May 24
Full
May 31
Last Quarter
Jun 8
New

Hourly Weather History & Observations

Time (MDT) Temp. Windchill Dew Point Humidity Pressure Visibility Wind Dir Wind Speed Gust Speed Precip Events Conditions
12:15 AM 44.6 °F 42.2 °F 30.2 °F 57% 30.36 in 10.0 mi NW 4.6 mph - N/A   Overcast
12:35 AM 42.8 °F - 30.2 °F 61% 30.37 in 10.0 mi Calm Calm - N/A   Mostly Cloudy
12:55 AM 42.8 °F - 30.2 °F 61% 30.37 in 10.0 mi Calm Calm - N/A   Scattered Clouds
1:15 AM 41.0 °F - 30.2 °F 65% 30.37 in 10.0 mi Calm Calm - N/A   Clear
1:35 AM 42.8 °F 38.6 °F 30.2 °F 61% 30.38 in 10.0 mi NNW 6.9 mph - N/A   Clear
1:55 AM 39.2 °F 37.0 °F 30.2 °F 70% 30.38 in 10.0 mi NW 3.5 mph - N/A   Scattered Clouds
2:15 AM 37.4 °F 32.1 °F 30.2 °F 75% 30.37 in 10.0 mi WSW 6.9 mph - N/A   Clear
2:35 AM 37.4 °F 32.8 °F 28.4 °F 70% 30.37 in 10.0 mi West 5.8 mph - N/A   Clear
2:55 AM 37.4 °F - 30.2 °F 75% 30.37 in 10.0 mi Calm Calm - N/A   Scattered Clouds
3:35 AM 35.6 °F 32.8 °F 28.4 °F 75% 30.37 in 10.0 mi WNW 3.5 mph - N/A   Scattered Clouds
3:55 AM 33.8 °F 26.4 °F 28.4 °F 81% 30.37 in 10.0 mi WNW 9.2 mph - N/A   Scattered Clouds
4:15 AM 35.6 °F 29.9 °F 28.4 °F 75% 30.37 in 10.0 mi WNW 6.9 mph - N/A   Clear
4:35 AM 33.8 °F 30.8 °F 28.4 °F 81% 30.37 in 10.0 mi NW 3.5 mph - N/A   Scattered Clouds
4:55 AM 33.8 °F 29.6 °F 28.4 °F 81% 30.37 in 10.0 mi WNW 4.6 mph - N/A   Mostly Cloudy
5:15 AM 33.8 °F 29.6 °F 28.4 °F 81% 30.37 in 10.0 mi WNW 4.6 mph - N/A   Mostly Cloudy
5:35 AM 32.0 °F 28.7 °F 28.4 °F 87% 30.37 in 10.0 mi West 3.5 mph - N/A   Mostly Cloudy
5:55 AM 33.8 °F 27.7 °F 28.4 °F 81% 30.37 in 10.0 mi NW 6.9 mph - N/A   Mostly Cloudy
6:15 AM 33.8 °F 28.6 °F 28.4 °F 81% 30.37 in 10.0 mi WNW 5.8 mph - N/A   Mostly Cloudy
6:35 AM 35.6 °F 30.7 °F 30.2 °F 81% 30.37 in 10.0 mi West 5.8 mph - N/A   Scattered Clouds
6:55 AM 37.4 °F 34.9 °F 30.2 °F 75% 30.38 in 10.0 mi WNW 3.5 mph - N/A   Scattered Clouds
7:15 AM 41.0 °F 39.0 °F 32.0 °F 70% 30.39 in 10.0 mi West 3.5 mph - N/A   Scattered Clouds
7:35 AM 41.0 °F 39.0 °F 32.0 °F 70% 30.39 in 10.0 mi WNW 3.5 mph - N/A   Clear
7:55 AM 44.6 °F - 32.0 °F 61% 30.39 in 10.0 mi Calm Calm - N/A   Clear
8:15 AM 46.4 °F - 32.0 °F 57% 30.39 in 10.0 mi Calm Calm - N/A   Clear
8:35 AM 50.0 °F - 32.0 °F 50% 30.38 in 10.0 mi Calm Calm - N/A   Clear
8:55 AM 51.8 °F - 32.0 °F 47% 30.38 in 10.0 mi Calm Calm - N/A   Clear
9:15 AM 55.4 °F - 32.0 °F 41% 30.38 in 10.0 mi Calm Calm - N/A   Clear
9:35 AM 59.0 °F - 32.0 °F 36% 30.38 in 10.0 mi Calm Calm - N/A   Clear
9:55 AM 60.8 °F - 32.0 °F 34% 30.37 in 10.0 mi WNW 3.5 mph - N/A   Clear
10:15 AM 62.6 °F - 32.0 °F 32% 30.37 in 10.0 mi NW 10.4 mph - N/A   Clear
10:35 AM 62.6 °F - 32.0 °F 32% 30.36 in 10.0 mi NW 5.8 mph - N/A   Clear
10:55 AM 64.4 °F - 32.0 °F 30% 30.36 in 10.0 mi NW 6.9 mph 23.0 mph N/A   Clear
11:15 AM 66.2 °F - 32.0 °F 28% 30.35 in 10.0 mi NW 12.7 mph 23.0 mph N/A   Clear
11:35 AM 68.0 °F - 30.2 °F 24% 30.35 in 10.0 mi NW 13.8 mph 21.9 mph N/A   Clear
11:55 AM 68.0 °F - 28.4 °F 23% 30.34 in 10.0 mi NW 19.6 mph 26.5 mph N/A   Clear
12:15 PM 68.0 °F - 26.6 °F 21% 30.34 in 10.0 mi NW 18.4 mph 27.6 mph N/A   Clear
12:35 PM 69.8 °F - 26.6 °F 20% 30.33 in 10.0 mi NW 23.0 mph 27.6 mph N/A   Clear
12:55 PM 69.8 °F - 28.4 °F 21% 30.33 in 10.0 mi WNW 12.7 mph 31.1 mph N/A   Clear
1:15 PM 69.8 °F - 28.4 °F 21% 30.32 in 10.0 mi NW 16.1 mph 25.3 mph N/A   Clear
1:35 PM 69.8 °F - 28.4 °F 21% 30.32 in 10.0 mi NW 16.1 mph 25.3 mph N/A   Clear
1:55 PM 71.6 °F - 28.4 °F 20% 30.31 in 10.0 mi WNW 17.3 mph 28.8 mph N/A   Clear
2:15 PM 71.6 °F - 28.4 °F 20% 30.31 in 10.0 mi NNW 17.3 mph 26.5 mph N/A   Clear
2:35 PM 71.6 °F - 26.6 °F 19% 30.31 in 10.0 mi WNW 15.0 mph 34.5 mph N/A   Scattered Clouds
2:55 PM 73.4 °F - 26.6 °F 18% 30.31 in 10.0 mi NW 20.7 mph 27.6 mph N/A   Clear
3:15 PM 71.6 °F - 28.4 °F 20% 30.31 in 10.0 mi NW 16.1 mph 27.6 mph N/A   Clear
3:35 PM 71.6 °F - 28.4 °F 20% 30.29 in 10.0 mi NW 9.2 mph 28.8 mph N/A   Clear
3:55 PM 71.6 °F - 30.2 °F 22% 30.29 in 10.0 mi WNW 16.1 mph 27.6 mph N/A   Clear
4:15 PM 71.6 °F - 28.4 °F 20% 30.29 in 10.0 mi WNW 16.1 mph 40.3 mph N/A   Clear
4:35 PM 71.6 °F - 28.4 °F 20% 30.29 in 10.0 mi NW 16.1 mph 31.1 mph N/A   Clear
4:55 PM 71.6 °F - 28.4 °F 20% 30.29 in 10.0 mi NW 20.7 mph 28.8 mph N/A   Clear
5:15 PM 71.6 °F - 30.2 °F 22% 30.28 in 10.0 mi WNW 20.7 mph 25.3 mph N/A   Scattered Clouds
5:35 PM 71.6 °F - 28.4 °F 20% 30.27 in 10.0 mi WNW 13.8 mph 27.6 mph N/A   Clear
5:55 PM 71.6 °F - 30.2 °F 22% 30.27 in 10.0 mi West 17.3 mph 26.5 mph N/A   Clear
6:15 PM 69.8 °F - 30.2 °F 23% 30.27 in 10.0 mi NNW 16.1 mph 20.7 mph N/A   Clear
6:35 PM 69.8 °F - 30.2 °F 23% 30.27 in 10.0 mi WNW 16.1 mph 19.6 mph N/A   Clear
6:55 PM 69.8 °F - 30.2 °F 23% 30.27 in 10.0 mi WNW 15.0 mph 24.2 mph N/A   Clear
7:15 PM 69.8 °F - 30.2 °F 23% 30.26 in 10.0 mi WNW 13.8 mph 24.2 mph N/A   Clear
7:35 PM 68.0 °F - 30.2 °F 24% 30.27 in 10.0 mi WNW 11.5 mph 15.0 mph N/A   Clear
7:55 PM 64.4 °F - 30.2 °F 28% 30.27 in 10.0 mi WNW 9.2 mph - N/A   Clear
8:15 PM 62.6 °F - 32.0 °F 32% 30.27 in 10.0 mi WNW 5.8 mph - N/A   Clear
8:35 PM 59.0 °F - 30.2 °F 34% 30.27 in 10.0 mi NW 5.8 mph - N/A   Clear
8:55 PM 55.4 °F - 32.0 °F 41% 30.28 in 10.0 mi NW 6.9 mph - N/A   Clear
9:15 PM 57.2 °F - 32.0 °F 38% 30.29 in 10.0 mi WNW 6.9 mph - N/A   Clear
9:35 PM 55.4 °F - 32.0 °F 41% 30.29 in 10.0 mi WNW 6.9 mph - N/A   Scattered Clouds
9:55 PM 53.6 °F - 32.0 °F 44% 30.30 in 10.0 mi WNW 4.6 mph - N/A   Scattered Clouds
10:15 PM 50.0 °F - 32.0 °F 50% 30.31 in 10.0 mi Calm Calm - N/A   Clear
10:35 PM 50.0 °F - 32.0 °F 50% 30.31 in 10.0 mi Calm Calm - N/A   Scattered Clouds
10:55 PM 50.0 °F - 32.0 °F 50% 30.32 in 10.0 mi NNW 3.5 mph - N/A   Mostly Cloudy
11:15 PM 46.4 °F - 32.0 °F 57% 30.32 in 10.0 mi Calm Calm - N/A   Scattered Clouds
11:35 PM 46.4 °F - 32.0 °F 57% 30.32 in 10.0 mi Calm Calm - N/A   Clear
11:55 PM 46.4 °F - 32.0 °F 57% 30.32 in 10.0 mi Calm Calm - N/A   Clear